Regional Weather Roundup
Issued by NWS

Home | Current Version | Previous Version | Graphics & Text | Print | Product List | Glossary On
Versions: 1 2 3 4 5 6 7 8 9 10 11 12 13 14 15 16 17 18 19 20 21 22 23 24 25 26 27 28 29 30 31 32 33 34 35 36 37 38 39 40 41 42 43 44 45 46 47 48 49 50
000
ASUS43 KLSX 212007
RWRMO

WEATHER SUMMARY FOR MISSOURI
NATIONAL WEATHER SERVICE SPRINGFIELD MO
300 PM CDT THU AUG 21 2014

NOTE: "FAIR" INDICATES FEW OR NO CLOUDS BELOW 12,000 FEET WITH NO
       SIGNIFICANT WEATHER AND/OR OBSTRUCTIONS TO VISIBILITY.
       CURRENT SKY AND/OR WEATHER CONDITIONS ARE NOT AVAILABLE FOR
       CHILLICOTHE AND FARMINGTON.

MOZ001>031-035>038-043-044-053-054-212100-
...NORTHERN AND WESTERN MISSOURI...

CITY           SKY/WX    TMP DP  RH WIND       PRES   REMARKS
KANSAS CTY INT PTSUNNY   93  75  55 S12       29.89F HX 104
KANSAS C DTWN  MOSUNNY   95  71  45 SW15      29.87F HX 102
LEE`S SUMMIT   MOSUNNY   93  72  50 S16G24    29.90F HX 101
ST JOSEPH      PTSUNNY   92  76  59 S17       29.84F HX 104
CHILLICOTHE      N/A     90  77  65 S12G17    29.90S HX 103
KIRKSVILLE     MOSUNNY   91  75  59 VRB7      29.93F HX 101

$$
MOZ066>068-077>081-088>096-101>105-212100-
...SOUTHWEST MISSOURI...

CITY           SKY/WX    TMP DP  RH WIND       PRES   REMARKS
SPRINGFIELD    SUNNY     97  65  34 SW16G22   29.99F HX  99
JOPLIN         MOSUNNY   96  69  41 S15       29.97F HX 102

$$
MOZ032>034-039>042-045>050-055>058-069>072-212100-
...CENTRAL MISSOURI...

CITY           SKY/WX    TMP DP  RH WIND       PRES   REMARKS
COLUMBIA       SUNNY     94  73  50 SW14      29.94F HX 103
JEFFERSON CITY SUNNY     93  72  50 S12       29.93F HX 101
ROLLA          MOSUNNY   92  71  50 SW9G16    29.97F HX  98
SEDALIA        MOSUNNY   94  73  50 SW14      29.94F HX 103
WHITEMAN AFB   MOSUNNY   92  69  46 SW15      29.91F HX  96
OSAGE BEACH    MOSUNNY   97  70  41 SW12      29.95F HX 103

$$
MOZ051-052-059>065-212100-
...EAST CENTRAL MISSOURI...

CITY           SKY/WX    TMP DP  RH WIND       PRES   REMARKS
ST LOUIS INTL  PTSUNNY   95  74  50 S12       29.96  HX 105
SPIRIT OF STL  MOSUNNY   93  74  53 SW13      29.94F HX 103
ST CHARLES     MOSUNNY   92  74  55 SW10      29.93F HX 101

$$
MOZ072>076-082>087-097>100-106>115-212100-
...SOUTH CENTRAL AND SOUTHEAST MISSOURI...

CITY           SKY/WX    TMP DP  RH WIND       PRES   REMARKS
CAPE GIRARDEAU PTSUNNY   89  74  60 SW12G18   30.00F HX  98
FARMINGTON     PTSUNNY   93  70  46 SW10      30.02F HX  99
POPLAR BLUFF   MOSUNNY   92  73  53 S13       30.00F HX 100
WEST PLAINS    MOSUNNY   93  69  45 S9        30.04F HX  98

$$


USA.gov is the U.S. government's official web portal to all federal, state and local government web resources and services.